Stündliche Wetter Barrancas

Heute, 23 Oktober, Freitag

Zeit Temperatur Niederschläge Wind Luftdruck Luftfeuchtigkeit
00:00 +24°C° 0 mm 0 m/S 743 mmHg 94%
01:00 +24°C° 0 mm 0 m/S 743 mmHg 94%
02:00 +24°C° 0.2 mm 0 m/S 743 mmHg 94%
03:00 +24°C° 0.2 mm 0 m/S 743 mmHg 94%
04:00 +24°C° 0.2 mm 0 m/S 743 mmHg 94%
05:00 +24°C° 0.3 mm 0 m/S 743 mmHg 94%
06:00 +25°C° 0.3 mm 0 m/S 744 mmHg 94%
07:00 +25°C° 0.3 mm 0 m/S 744 mmHg 93%
08:00 +29°C° 0 mm 1 m/S 744 mmHg 87%
09:00 +30°C° 0 mm 1 m/S 744 mmHg 80%
10:00 +32°C° 0 mm 2 m/S 744 mmHg 74%
11:00 +34°C° 0.1 mm 2 m/S 744 mmHg 71%
12:00 +34°C° 0.1 mm 2 m/S 743 mmHg 69%
13:00 +35°C° 0.1 mm 2 m/S 742 mmHg 66%
14:00 +33°C° 1.6 mm 1 m/S 742 mmHg 73%
15:00 +32°C° 1.6 mm 1 m/S 741 mmHg 80%
16:00 +31°C° 1.6 mm 1 m/S 741 mmHg 86%
17:00 +30°C° 2.6 mm 1 m/S 742 mmHg 89%
18:00 +29°C° 2.6 mm 1 m/S 742 mmHg 92%
19:00 +27°C° 2.6 mm 1 m/S 742 mmHg 95%
20:00 +27°C° 0.6 mm 1 m/S 743 mmHg 96%
21:00 +27°C° 0.6 mm 1 m/S 743 mmHg 96%
22:00 +26°C° 0.6 mm 1 m/S 744 mmHg 97%
23:00 +26°C° 0.8 mm 1 m/S 744 mmHg 96%

Morgen, 24 Oktober, Samstag

Zeit Temperatur Niederschläge Wind Luftdruck Luftfeuchtigkeit
00:00 +26°C° 0.8 mm 1 m/S 743 mmHg 96%
01:00 +26°C° 0.8 mm 1 m/S 743 mmHg 96%
02:00 +25°C° 1.7 mm 1 m/S 743 mmHg 96%
03:00 +25°C° 1.7 mm 1 m/S 743 mmHg 96%
04:00 +23°C° 1.7 mm 0 m/S 743 mmHg 96%
05:00 +24°C° 0.7 mm 0 m/S 743 mmHg 95%
06:00 +24°C° 0.7 mm 0 m/S 743 mmHg 95%
07:00 +27°C° 0.7 mm 1 m/S 744 mmHg 94%
08:00 +28°C° 0 mm 1 m/S 744 mmHg 87%
09:00 +30°C° 0 mm 1 m/S 744 mmHg 81%
10:00 +32°C° 0 mm 1 m/S 745 mmHg 74%
11:00 +32°C° 0.5 mm 1 m/S 744 mmHg 75%
12:00 +32°C° 0.5 mm 1 m/S 743 mmHg 76%
13:00 +33°C° 0.5 mm 1 m/S 742 mmHg 76%
14:00 +32°C° 1.3 mm 1 m/S 742 mmHg 80%
15:00 +29°C° 1.3 mm 0 m/S 742 mmHg 85%
16:00 +28°C° 1.3 mm 0 m/S 741 mmHg 89%
17:00 +27°C° 2.4 mm 0 m/S 742 mmHg 91%
18:00 +26°C° 2.4 mm 0 m/S 742 mmHg 93%
19:00 +25°C° 2.4 mm 0 m/S 742 mmHg 94%
20:00 +24°C° 0.6 mm 0 m/S 743 mmHg 95%
21:00 +24°C° 0.6 mm 0 m/S 743 mmHg 95%
22:00 +24°C° 0.6 mm 0 m/S 744 mmHg 95%
23:00 +24°C° 1.2 mm 0 m/S 743 mmHg 96%

übermorgen, 25 Oktober, Sonntag

Zeit Temperatur Niederschläge Wind Luftdruck Luftfeuchtigkeit
00:00 +26°C° 1.2 mm 1 m/S 743 mmHg 96%
01:00 +26°C° 1.2 mm 1 m/S 743 mmHg 96%
02:00 +25°C° 1.7 mm 1 m/S 743 mmHg 97%
03:00 +25°C° 1.7 mm 1 m/S 743 mmHg 97%
04:00 +23°C° 1.7 mm 0 m/S 743 mmHg 97%
05:00 +23°C° 0.6 mm 0 m/S 744 mmHg 97%
06:00 +24°C° 0.6 mm 0 m/S 744 mmHg 96%
07:00 +24°C° 0.6 mm 0 m/S 745 mmHg 96%
08:00 +28°C° 0.1 mm 1 m/S 745 mmHg 89%
09:00 +29°C° 0.1 mm 1 m/S 745 mmHg 82%
10:00 +31°C° 0.1 mm 1 m/S 746 mmHg 75%
11:00 +31°C° 0.4 mm 1 m/S 745 mmHg 76%
12:00 +31°C° 0.4 mm 1 m/S 744 mmHg 77%
13:00 +30°C° 0.4 mm 0 m/S 743 mmHg 78%
14:00 +29°C° 1.7 mm 0 m/S 743 mmHg 81%
15:00 +28°C° 1.7 mm 0 m/S 743 mmHg 85%
16:00 +28°C° 1.7 mm 0 m/S 743 mmHg 89%
17:00 +26°C° 2.2 mm 0 m/S 743 mmHg 91%
18:00 +25°C° 2.2 mm 0 m/S 743 mmHg 92%
19:00 +24°C° 2.2 mm 0 m/S 744 mmHg 94%
20:00 +24°C° 0.7 mm 0 m/S 744 mmHg 95%
21:00 +24°C° 0.7 mm 0 m/S 744 mmHg 95%
22:00 +23°C° 0.7 mm 0 m/S 745 mmHg 95%
23:00 +23°C° 0.3 mm 0 m/S 744 mmHg 95%

, 26 Oktober, Montag

Zeit Temperatur Niederschläge Wind Luftdruck Luftfeuchtigkeit
00:00 +23°C° 0.3 mm 0 m/S 744 mmHg 95%
01:00 +23°C° 0.3 mm 0 m/S 744 mmHg 95%
02:00 +23°C° 0.4 mm 0 m/S 744 mmHg 95%
03:00 +23°C° 0.4 mm 0 m/S 744 mmHg 96%
04:00 +23°C° 0.4 mm 0 m/S 744 mmHg 96%
05:00 +23°C° 0.1 mm 0 m/S 744 mmHg 95%
06:00 +24°C° 0.1 mm 0 m/S 744 mmHg 95%
07:00 +24°C° 0.1 mm 0 m/S 745 mmHg 94%
08:00 +28°C° 0 mm 1 m/S 745 mmHg 85%
09:00 +30°C° 0 mm 1 m/S 745 mmHg 75%
10:00 +32°C° 0 mm 2 m/S 746 mmHg 66%
11:00 +34°C° 0 mm 2 m/S 745 mmHg 64%
12:00 +34°C° 0 mm 3 m/S 744 mmHg 62%
13:00 +35°C° 0 mm 3 m/S 743 mmHg 61%
14:00 +34°C° 0.1 mm 3 m/S 743 mmHg 65%
15:00 +33°C° 0.1 mm 3 m/S 742 mmHg 70%
16:00 +31°C° 0.1 mm 3 m/S 742 mmHg 74%
17:00 +29°C° 0 mm 2 m/S 742 mmHg 81%
18:00 +28°C° 0 mm 1 m/S 743 mmHg 87%
19:00 +26°C° 0 mm 1 m/S 743 mmHg 94%
20:00 +26°C° 0 mm 1 m/S 743 mmHg 94%
21:00 +26°C° 0 mm 1 m/S 744 mmHg 94%
22:00 +25°C° 0 mm 1 m/S 744 mmHg 93%
23:00 +25°C° 0.1 mm 1 m/S 744 mmHg 94%

26 Oktober, Montag

Zeit Temperatur Niederschläge Wind Luftdruck Luftfeuchtigkeit
00:00 +23°C° 0.3 mm 0 m/S 744 mmHg 95%
01:00 +23°C° 0.3 mm 0 m/S 744 mmHg 95%
02:00 +23°C° 0.4 mm 0 m/S 744 mmHg 95%
03:00 +23°C° 0.4 mm 0 m/S 744 mmHg 96%
04:00 +23°C° 0.4 mm 0 m/S 744 mmHg 96%
05:00 +23°C° 0.1 mm 0 m/S 744 mmHg 95%
06:00 +24°C° 0.1 mm 0 m/S 744 mmHg 95%
07:00 +24°C° 0.1 mm 0 m/S 745 mmHg 94%
08:00 +28°C° 0 mm 1 m/S 745 mmHg 85%
09:00 +30°C° 0 mm 1 m/S 745 mmHg 75%
10:00 +32°C° 0 mm 2 m/S 746 mmHg 66%
11:00 +34°C° 0 mm 2 m/S 745 mmHg 64%
12:00 +34°C° 0 mm 3 m/S 744 mmHg 62%
13:00 +35°C° 0 mm 3 m/S 743 mmHg 61%
14:00 +34°C° 0.1 mm 3 m/S 743 mmHg 65%
15:00 +33°C° 0.1 mm 3 m/S 742 mmHg 70%
16:00 +31°C° 0.1 mm 3 m/S 742 mmHg 74%
17:00 +29°C° 0 mm 2 m/S 742 mmHg 81%
18:00 +28°C° 0 mm 1 m/S 743 mmHg 87%
19:00 +26°C° 0 mm 1 m/S 743 mmHg 94%
20:00 +26°C° 0 mm 1 m/S 743 mmHg 94%
21:00 +26°C° 0 mm 1 m/S 744 mmHg 94%
22:00 +25°C° 0 mm 1 m/S 744 mmHg 93%
23:00 +25°C° 0.1 mm 1 m/S 744 mmHg 94%

27 Oktober, Dienstag

Zeit Temperatur Niederschläge Wind Luftdruck Luftfeuchtigkeit
00:00 +23°C° 0.1 mm 0 m/S 744 mmHg 95%
01:00 +23°C° 0.1 mm 0 m/S 743 mmHg 96%
02:00 +23°C° 0 mm 0 m/S 743 mmHg 96%
03:00 +23°C° 0 mm 0 m/S 743 mmHg 96%
04:00 +23°C° 0 mm 0 m/S 743 mmHg 96%
05:00 +23°C° 0 mm 0 m/S 743 mmHg 95%
06:00 +24°C° 0 mm 0 m/S 743 mmHg 94%
07:00 +25°C° 0 mm 0 m/S 744 mmHg 93%
08:00 +28°C° 0.1 mm 1 m/S 744 mmHg 85%
09:00 +30°C° 0.1 mm 1 m/S 744 mmHg 78%
10:00 +32°C° 0.1 mm 2 m/S 744 mmHg 71%
11:00 +32°C° 0 mm 2 m/S 743 mmHg 69%
12:00 +34°C° 0 mm 2 m/S 743 mmHg 67%
13:00 +34°C° 0 mm 3 m/S 742 mmHg 65%
14:00 +33°C° 0.2 mm 3 m/S 741 mmHg 70%
15:00 +31°C° 0.2 mm 2 m/S 741 mmHg 76%
16:00 +30°C° 0.2 mm 2 m/S 740 mmHg 81%
17:00 +29°C° 0.2 mm 2 m/S 741 mmHg 86%
18:00 +28°C° 0.2 mm 1 m/S 742 mmHg 91%
19:00 +26°C° 0.2 mm 1 m/S 742 mmHg 95%
20:00 +26°C° 0 mm 1 m/S 742 mmHg 95%
21:00 +26°C° 0 mm 1 m/S 742 mmHg 95%
22:00 +25°C° 0 mm 1 m/S 743 mmHg 95%
23:00 +23°C° 0 mm 0 m/S 743 mmHg 95%

28 Oktober, Mittwoch

Zeit Temperatur Niederschläge Wind Luftdruck Luftfeuchtigkeit
00:00 +23°C° 0 mm 0 m/S 742 mmHg 96%
01:00 +23°C° 0 mm 0 m/S 742 mmHg 96%
02:00 +23°C° 0.1 mm 0 m/S 742 mmHg 96%
03:00 +23°C° 0.1 mm 0 m/S 742 mmHg 96%
04:00 +23°C° 0.1 mm 0 m/S 742 mmHg 96%
05:00 +23°C° 0.3 mm 0 m/S 742 mmHg 94%
06:00 +24°C° 0.3 mm 0 m/S 743 mmHg 93%
07:00 +24°C° 0.3 mm 0 m/S 743 mmHg 92%
08:00 +28°C° 0.1 mm 1 m/S 743 mmHg 85%
09:00 +30°C° 0.1 mm 1 m/S 743 mmHg 77%
10:00 +31°C° 0.1 mm 1 m/S 744 mmHg 70%
11:00 +32°C° 0 mm 2 m/S 743 mmHg 67%
12:00 +34°C° 0 mm 2 m/S 742 mmHg 64%
13:00 +35°C° 0 mm 2 m/S 741 mmHg 61%
14:00 +32°C° 0.5 mm 2 m/S 741 mmHg 69%
15:00 +31°C° 0.5 mm 2 m/S 741 mmHg 77%
16:00 +30°C° 0.5 mm 1 m/S 740 mmHg 85%
17:00 +29°C° 0.3 mm 1 m/S 741 mmHg 88%
18:00 +28°C° 0.3 mm 1 m/S 741 mmHg 91%
19:00 +24°C° 0.3 mm 0 m/S 742 mmHg 94%
20:00 +24°C° 0 mm 0 m/S 742 mmHg 94%
21:00 +26°C° 0 mm 1 m/S 743 mmHg 94%
22:00 +25°C° 0 mm 1 m/S 743 mmHg 94%
23:00 +25°C° 0 mm 1 m/S 743 mmHg 94%
Mehr zeigen